Location: Unspecified
(35.7250°N, 0.0000°E)
Time: 06:41:18
(UTC+00:00)

Explorer 7 - Pass Details

Date: 20 June 2019
Orbit: 485 x 680 km, 50.3° (Epoch: 18 July)

Event Time Altitude Azimuth Distance (km) Brightness Sun altitude
Rises 10:08:12 0° 263° (W) 2,780 10.2 62.6°
Reaches altitude 10° 10:10:41 10° 276° (W) 1,920 9.4 63.1°
Maximum altitude 10:14:28 27° 335° (NNW) 1,192 8.7 63.8°
Drops below altitude 10° 10:18:26 10° 33° (NNE) 2,028 9.9 64.6°
Sets 10:21:08 0° 45° (NE) 2,970 10.7 65.1°
